User: anonymous   Login
Location: ??????
(55.6130°N, 37.7882°E)
Time: 15:35:20
(UTC+00:00)
Language:

Cosmos 2237 Rocket - Orbit

View from above orbital plane
View from above orbital plane
View from above satellite
View from above satellite

Ground track
Ground track

The orbit data is extracted from the following two-line orbital elements,

1 22566U 93016B   24174.18548545 -.00000209  00000-0 -83039-4 0  9998
2 22566  71.0078  88.7778 0011222 206.8202 153.2342 14.15137633613687
Epoch (UTC): 22 June 2024 04:27:05
Eccentricity: 0.0011222
inclination: 71.0078°
perigee height: 834 km
apogee height: 850 km
right ascension of ascending node: 88.7778°
argument of perigee: 206.8202°
revolutions per day: 14.15137633
mean anomaly at epoch: 153.2342°
orbit number at epoch: 61368

The dashed part of the orbit path shows where the satellite is in the earth's shadow,  

DLR